Location: Unspecified
(51.0950°N, 12.9690°E)
Time: 22:48:00
(UTC+00:00)

Cosmos 2369 Rocket - Pass Details

Date: 28 October 2021
Orbit: 829 x 852 km, 71.0° (Epoch: 01 December)

Event Time Altitude Azimuth Distance (km) Brightness Sun altitude
Rises 18:05:12 0° 329° (NNW) 3,384 5.9 -21.8°
Reaches altitude 10° 18:08:44 10° 351° (N) 2,449 4.8 -22.4°
Enters shadow 18:12:01 16° 28° (NNE) 2,074 4.0 -22.9°
